Change the Weather History Date:

Wednesday, February 27, 2013

  Actual Average Record
Temperature  
Mean Temperature 44 °F -  
Max Temperature 51 °F 0 °F 62 °F (1998)
Min Temperature 36 °F - 8 °F (2014)
Degree Days  
Heating Degree Days 22    
Moisture  
Dew Point 36 °F    
Average Humidity 83    
Maximum Humidity 100    
Minimum Humidity 52    
Precipitation  
Precipitation 0.17 in - - ()
Sea Level Pressure  
Sea Level Pressure 29.60 in    
Wind  
Wind Speed 7 mph (NW)    
Max Wind Speed 17 mph    
Max Gust Speed 24 mph    
Visibility 6 miles    
Events Rain    
Averages and records for this station are not official NWS values.
T = Trace of Precipitation, MM = Missing Value Source: NWS Daily Summary

Daily Weather History Graph

Daily Weather History Graph

Search for Another Location

Airport or City:

Trip Planner

Search our weather history database for the weather conditions in past years. The results will help you decide how hot, cold, wet, or windy it might be!

Date:

Astronomy

Feb. 27, 2013 Rise Set
Actual Time 6:43 AM EST 5:57 PM EST
Civil Twilight 6:16 AM EST 6:24 PM EST
Nautical Twilight 5:44 AM EST 6:56 PM EST
Astronomical Twilight 5:13 AM EST 7:27 PM EST
Moon 8:16 PM EST (2/27) 7:16 AM EST (2/27)
Length of Visible Light 12h 08m
Length of Day
11h 14m
Waning Gibbous, 96% of the Moon is Illuminated
Feb 27
Waning Gibbous
Mar 4
Last Quarter
Mar 11
New
Mar 19
First Quarter
Mar 27
Full

Hourly Weather History & Observations

Time (EST) Temp. Windchill Dew Point Humidity Pressure Visibility Wind Dir Wind Speed Gust Speed Precip Events Conditions
12:53 AM 37.9 °F 30.5 °F 35.1 °F 89% 29.67 in 4.0 mi ENE 11.5 mph - 0.01 in Rain Light Rain
1:45 AM 37.4 °F 32.1 °F 35.6 °F 93% 29.63 in 2.5 mi ENE 6.9 mph - 0.03 in Rain Light Rain
1:53 AM 37.9 °F 33.5 °F 36.0 °F 93% 29.64 in 4.0 mi ENE 5.8 mph - 0.03 in Rain Light Rain
2:53 AM 39.0 °F 31.8 °F 36.0 °F 89% 29.58 in 5.0 mi ENE 11.5 mph - 0.01 in   Overcast
3:53 AM 39.0 °F 33.4 °F 37.0 °F 93% 29.54 in 5.0 mi ENE 8.1 mph - 0.00 in   Overcast
4:53 AM 39.9 °F 37.8 °F 37.9 °F 93% 29.56 in 5.0 mi NNE 3.5 mph - 0.01 in Rain Light Rain
5:08 AM 39.2 °F - 37.4 °F 93% 29.54 in 2.5 mi Calm Calm - 0.02 in Rain Light Rain
5:17 AM 39.2 °F 35.9 °F 37.4 °F 93% 29.54 in 3.0 mi NNE 4.6 mph - 0.03 in Rain Rain
5:26 AM 39.2 °F 35.9 °F 37.4 °F 93% 29.54 in 2.5 mi North 4.6 mph - 0.04 in Rain Light Rain
5:34 AM 39.2 °F 35.9 °F 37.4 °F 93% 29.53 in 4.0 mi NNE 4.6 mph - 0.04 in Rain Light Rain
5:53 AM 39.0 °F 34.8 °F 37.0 °F 93% 29.55 in 3.0 mi North 5.8 mph - 0.04 in   Overcast
6:07 AM 39.2 °F 35.0 °F 37.4 °F 93% 29.52 in 2.5 mi NNE 5.8 mph - 0.00 in Rain Light Rain
6:44 AM 39.2 °F 35.9 °F 37.4 °F 93% 29.53 in 3.0 mi NNW 4.6 mph - 0.00 in   Overcast
6:51 AM 39.2 °F 37.0 °F 37.4 °F 93% 29.53 in 2.5 mi North 3.5 mph - 0.00 in   Overcast
6:53 AM 39.0 °F 36.8 °F 37.9 °F 96% 29.55 in 2.5 mi North 3.5 mph - 0.00 in   Overcast
7:05 AM 39.2 °F 37.0 °F 37.4 °F 93% 29.53 in 2.0 mi NNW 3.5 mph - 0.02 in Rain Light Rain
7:16 AM 39.2 °F 35.9 °F 37.4 °F 93% 29.54 in 1.0 mi NW 4.6 mph - 0.03 in Rain Rain
7:29 AM 39.2 °F 35.0 °F 37.4 °F 93% 29.55 in 1.2 mi WNW 5.8 mph - 0.05 in Rain Light Rain
7:53 AM 37.9 °F 32.1 °F 36.0 °F 93% 29.59 in 2.0 mi West 8.1 mph - 0.06 in Rain Light Rain
8:00 AM 37.4 °F 31.4 °F 35.6 °F 93% 29.58 in 2.5 mi West 8.1 mph - 0.00 in Rain Light Rain
8:23 AM 37.4 °F 33.8 °F 37.4 °F 100% 29.58 in 3.0 mi WNW 4.6 mph - 0.01 in Rain Light Rain
8:53 AM 39.9 °F 34.5 °F 37.0 °F 89% 29.60 in 10.0 mi West 8.1 mph - 0.01 in   Overcast
9:29 AM 39.2 °F 33.6 °F 37.4 °F 93% 29.60 in 10.0 mi West 8.1 mph - N/A   Overcast
9:49 AM 41.0 °F 35.8 °F 37.4 °F 87% 29.61 in 10.0 mi WNW 8.1 mph - 0.00 in Rain Light Rain
9:53 AM 41.0 °F 35.8 °F 37.9 °F 89% 29.62 in 10.0 mi WNW 8.1 mph - 0.00 in Rain Light Rain
10:01 AM 41.0 °F 35.8 °F 37.4 °F 87% 29.61 in 10.0 mi WNW 8.1 mph - 0.00 in Rain Light Rain
10:53 AM 44.1 °F 39.0 °F 39.0 °F 82% 29.62 in 10.0 mi West 9.2 mph - 0.00 in   Mostly Cloudy
11:50 AM 46.4 °F 41.5 °F 39.2 °F 76% 29.61 in 10.0 mi West 10.4 mph 17.3 mph N/A   Mostly Cloudy
11:53 AM 46.9 °F - 39.0 °F 74% 29.62 in 10.0 mi WNW 9.2 mph - N/A   Mostly Cloudy
12:01 PM 48.2 °F - 39.2 °F 71% 29.60 in 10.0 mi West 15.0 mph 20.7 mph N/A   Scattered Clouds
12:53 PM 50.0 °F - 37.9 °F 63% 29.60 in 10.0 mi WSW 10.4 mph - N/A   Mostly Cloudy
1:53 PM 51.1 °F - 36.0 °F 56% 29.60 in 10.0 mi West 17.3 mph 24.2 mph N/A   Scattered Clouds
2:53 PM 48.9 °F - 34.0 °F 56% 29.62 in 10.0 mi West 13.8 mph 21.9 mph N/A   Overcast
3:53 PM 48.0 °F - 32.0 °F 54% 29.64 in 10.0 mi West 13.8 mph 24.2 mph N/A   Overcast
4:53 PM 48.0 °F - 30.9 °F 52% 29.65 in 10.0 mi West 9.2 mph - N/A   Overcast
5:53 PM 46.0 °F 43.1 °F 30.0 °F 54% 29.66 in 10.0 mi West 5.8 mph - N/A   Clear
6:53 PM 41.0 °F - 30.9 °F 67% 29.68 in 10.0 mi Calm Calm - N/A   Overcast
7:53 PM 42.1 °F 40.2 °F 30.9 °F 65% 29.68 in 10.0 mi West 3.5 mph - N/A   Overcast
8:53 PM 39.9 °F 37.8 °F 30.9 °F 70% 29.68 in 10.0 mi WNW 3.5 mph - N/A   Overcast
9:53 PM 36.0 °F - 30.0 °F 79% 29.68 in 10.0 mi Calm Calm - N/A   Overcast
10:53 PM 36.0 °F - 30.9 °F 82% 29.66 in 10.0 mi Calm Calm - N/A   Mostly Cloudy
11:53 PM 39.9 °F - 30.9 °F 70% 29.65 in 10.0 mi Calm Calm - N/A   Overcast